Weather in Maksimkin Yar

Russia / Tomsk District     58°40′44″N   86°49′13″E
temp.,
°C
wind,
m/s
gust,
m/s
humid.,
%
clouds,
%
prec.,
mm/h
press.,
hPa
HPBL,
m
14 may, fri
fri1401:00+7w278285 0.0 1013160
04:00+6nw4117727 0.0 1013451
07:00+6nnw597653 0.1 1015964
10:00+6nnw58495 0.0 10181297
13:00+10nw58290 0.0 10181791
16:00+12nw6826100 0.0 10171893
19:00+11wnw4834100 0.0 10181763
22:00+8wnw594683 0.0 1018860
15 may, sat
sat1501:00+8sw51666100 0.0 1014748
04:00+9wsw6156763 0.3 1011653
07:00+10wsw6137711 0.9 1012634
10:00+15w596562 0.0 10121020
13:00+17wnw4863100 0.0 10121513
16:00+14n4871100 0.5 1012402
19:00+8nnw2696100 6.2 1014446
22:00+7n129391 1.5 1015127
16 may, sun
sun1601:00+5ne2396100 1.5 101679
04:00+3ene278952 0.0 1016175
07:00+4e3781100 0.0 1016275
10:00+7e3563100 0.0 1015570
13:00+9ene3454100 0.0 1015760
16:00+13ene2144100 0.0 10131208
19:00+10nne2557100 0.0 1013258
22:00+6ene2667100 0.0 1013225
17 may, mon
mon1701:00+5ene2580100 0.3 1011221
04:00+4ene3796100 2.9 1010369
07:00+4ne4796100 5.3 1009465
10:00+4ne3797100 0.1 1011547
13:00+7nne357288 0.1 10121020
16:00+12n463975 0.0 10131920
19:00+11n45355 0.0 10141891
22:00+4n235461 0.0 101646
18 may, tue
tue1801:00+2ne2560100 0.0 1016110
04:000ene246279 0.0 101770
07:00+2ene3650100 0.0 1018268
10:00+6ene3435100 0.0 10171084
13:00+9nne33305 0.0 10162126
16:00+10nne452988 0.0 10152440
19:00+9n463162 0.0 10142440
22:00+3n25535 0.0 101588